Hourly Data Report for September 11, 2012

HALIFAX STANFIELD INT'L A
NOVA SCOTIA

44°52'48.060" N
63°30'00.050" W
145.40 m
8202250
71395
YHZ

Download Data

Hourly Data (September 2012)
Hourly Data Report for September 11, 2012
TIME
LST
Temp Definition
°C
Dew Point Definition
°C
Rel Hum Definition
%
Precip. Amount Definition
mm

Wind Dir Definition
10's deg

Wind Spd Definition
km/h
Visibility Definition
km
Stn Press Definition
kPa
Hmdx Definition


Wind Chill Definition


Weather Definition


00:00 12.6 11.5 93   35 22 24.1 98.65     Cloudy
01:00 12.9 12.7 99   34 26 24.1 98.60     Cloudy
02:00 12.9 11.9 94   33 28 24.1 98.61     Cloudy
03:00 12.9 12.0 94   32 26 24.1 98.66     Mostly Cloudy
04:00 12.8 12.8 100   32 22 12.9 98.73     Rain
05:00 12.6 12.3 98   31 32 24.1 98.85     Cloudy
06:00 11.8 11.2 96   31 30 24.1 99.00     Mostly Cloudy
07:00 12.2 10.7 91   32 32 24.1 99.14     Mainly Clear
08:00 13.4 10.2 81   32 35 24.1 99.29     Mainly Clear
09:00 14.3 10.4 77   32 33 24.1 99.41     Mainly Clear
10:00 14.8 10.3 74   33 35 24.1 99.56     Mainly Clear
11:00 16.3 10.8 70   32 26 24.1 99.62     Mainly Clear
12:00 17.1 10.0 63   34 33 24.1 99.67     Mainly Clear
13:00 18.1 9.5 57   33 32 24.1 99.71     Mainly Clear
14:00 18.9 9.6 55   32 19 24.1 99.78     Mainly Clear
15:00 19.5 9.0 51   31 26 24.1 99.83     Mainly Clear
16:00 19.5 9.0 51   33 24 24.1 99.90     Mainly Clear
17:00 19.2 9.4 53   32 17 24.1 99.96     Mainly Clear
18:00 17.8 9.5 58   29 15 24.1 100.07     Mainly Clear
19:00 15.7 9.7 67   27 9 24.1 100.17     Clear
20:00 14.7 9.4 71   27 9 24.1 100.28     Clear
21:00 14.4 9.2 71   26 17 24.1 100.35     Clear
22:00 13.9 9.1 73   27 19 24.1 100.42     Clear
23:00 13.0 8.7 75   27 13 24.1 100.46     Clear

Notes on Data Quality.

Legend

  • E = Estimated
  • M = Missing
  • NA = Not Available*
  • [empty] = Indicates an unobserved value
Date modified: